Flag for U.S.A. Weather past 2 weeks in Albuquerque, New Mexico, U.S.A.

Now
50 °F

Clear.


Feels Like: 46 °F
Forecast: 47 / 76 °F
Wind: 12 mph from Southeast

Location: Albuquerque International Airport

Current Time: Apr 1, 2015 at 5:08:30 AM

Latest Report: Apr 1, 2015 at 3:52 AM


Visibility: 10 mi

Pressure: 29.80 "Hg

Humidity: 38%

Dew point: 25 °F

Location of AlbuquerqueLocation

Historic Weather in Albuquerque — Graph

°F

Albuquerque temperature yesterday

Maximum temperature yesterday: 77 °F (at 2:52 PM)
Minimum temperature yesterday: 50 °F (at 6:52 AM)
Average temperature yesterday: 63 °F

Past Weeks' High & Low Weather Summary

 TemperatureHumidityPressure
High80 °F (Mar 28, 5:52 PM)100% (Mar 19, 6:52 AM)30.29 "Hg (Mar 19, 6:52 AM)
Low37 °F (Mar 26, 7:52 AM)8% (Mar 30, 3:52 PM)29.78 "Hg (Apr 1, 1:52 AM)
Average57 °F38%30.00 "Hg
* Reported Mar 17 3:52 AM — Apr 1 3:52 AM, Albuquerque, Weather by CustomWeather, © 2015

Note: Actual official high and low records may vary slightly from our data, if they occured in-between our weather recording intervals... More about our weather records

Advertising

Albuquerque weather history for previous 24 hours

 ConditionsComfort  
Time TempWeatherWind HumidityBarometerVisibility
3:52 AM
Wed, Apr 1
50 °FClear.12 mph38%29.80 "Hg10 mi
2:52 AM48 °FClear.7 mph39%29.81 "Hg10 mi
1:52 AM56 °FPassing clouds.8 mph29%29.78 "Hg10 mi
12:52 AM56 °FPassing clouds.9 mph29%29.80 "Hg10 mi
11:52 PM
Tue, Mar 31
55 °FPassing clouds.6 mph29%29.81 "Hg10 mi
10:52 PM57 °FPassing clouds.7 mph27%29.82 "Hg10 mi
9:52 PM62 °FPassing clouds.7 mph22%29.82 "Hg10 mi
8:52 PM68 °FPartly cloudy.5 mph18%29.80 "Hg10 mi
7:52 PM70 °FBroken clouds.6 mph16%29.80 "Hg10 mi
6:52 PM73 °FBroken clouds.7 mph13%29.80 "Hg10 mi
5:52 PM74 °FBroken clouds.3 mph12%29.80 "Hg10 mi
4:52 PM76 °FBroken clouds.8 mph11%29.78 "Hg10 mi
3:52 PM76 °FBroken clouds.3 mph11%29.80 "Hg10 mi
2:52 PM77 °FScattered clouds.6 mph10%29.84 "Hg10 mi
1:52 PM76 °FPassing clouds.7 mph12%29.86 "Hg10 mi
12:52 PM72 °FPassing clouds.3 mph16%29.92 "Hg10 mi
11:52 AM71 °FPassing clouds.5 mph18%29.93 "Hg10 mi
10:52 AM66 °FPassing clouds.No wind21%29.96 "Hg10 mi
9:52 AM59 °FPassing clouds.5 mph28%29.99 "Hg10 mi
8:52 AM54 °FScattered clouds.3 mph33%30.01 "Hg10 mi
7:52 AM51 °FPassing clouds.8 mph33%29.99 "Hg10 mi
6:52 AM50 °FPassing clouds.9 mph35%29.97 "Hg10 mi
5:52 AM51 °FPassing clouds.5 mph35%29.95 "Hg10 mi
Weather by CustomWeather, © 2015

See weather overviewHow to use our weather pages